Showing default

EXPRESS AM-7, 40505

Orbit data source: Space-Track

EXPRESS AM-7, 40505 is a payload satellite owned by KosSvyaz (CIS) in GEO that was launched on Wed, 18 Mar 2015 UTC via a PROTON-M/BRIZ-M launch vehicle from the Tyuratam Missile And Space Complex (TTMTR). Payload-class satellites include a variety of spacecraft equipped with specific instruments for various scientific and technological missions. These include communications satellites like Starlink; space stations such as the ISS; scientific satellites like the Hubble; Earth observation satellites from companies like Planet Labs, Umbra, and HawkEye 360; GPS; miniature CubeSats for education and research; and military/defense satellites.

Not visible in the next 10 days
Identifier
40505, 2015-012A
Orbit
GEO
Country
Flag of CISCIS
Related business
Manufacturer
Airbus/Toulouse
Mission
Operational Commercial Communications
Bus & Motor
EUROSTAR 3000, R-4D?
Mass
5,712 kg wet, ~2,500 kg dry
Launch date (UTC)
2015-03-18 (11 years ago)
Launch vehicle
PROTON-M/BRIZ-M
Launch site
Tyuratam Missile And Space Complex (TTMTR)
Object type
Payload
Rocket body
Debris
Shape & HBR
Cyl + 2 Pan, 19.9 m
Radar Cross Section
40.740 m², Large (>1 m²)

Expand to show TLE details & history
Last TLE update: 2 days ago

TLE from 2 days ago
0 EXPRESS AM-7
1 40505U 15012A   26171.25734353  .00000146  00000-0  00000+0 0  9992
2 40505   0.0181  60.5638 0003019  34.4951 306.0287  1.00272388 41038
Epoch: 2026-06-20T06:10Z
TLE epoch observation values (Epoch: 2026-06-20T06:10:34.480Z)
Latitude
0.00233°
Longitude
39.9537°
Altitude
35,778.389 km
Speed
3.075 km/s
True Right ascension
02h 44m 17s
True Declination
0° 00' 08"
Sunlit
Object was in daylight at epoch
Visualization orbit readout
Latitude
Unknown
Longitude
Unknown
Altitude
Unknown
Speed
Unknown
Apparent Right ascension
Unknown
Apparent Declination
Unknown
Sunlit
N/A
Visualization observer readout
Local Sidereal Time
21:41:26
Azimuth
Unknown
Elevation
Unknown
Doppler factor
Unknown
Orbital elements
Apogee altitude
35,800.226 km
Perigee altitude
35,774.766 km
Semi-major axis
42,165.633 km
Eccentricity
0.0003
Inclination
0.0181°
RAAN
60.5638°
Arg. of periapsis
34.4951°
True anomaly
306.00072°
Mean anomaly
306.0287°
Eccentric anomaly
306.01471°
Mean motion
0.25067 °/min
Orbital period
1,436.14 mins
BSTAR
0
Loading maneuver chart data...
Computing Atmospheric mass density...
Loading historical data...
Loading historical data...
Loading historical data...
Loading historical data...
Loading historical data...
Loading historical data...
Loading historical data...
Other satellites on launch #12 in the year 2015 (2015-03-18 UTC)

Documentation

Showing up to 5 results
|